[[{"header":{"parameterUnit":"m.s-1","parameterCategory":1,"la1":30.2991,"la2":30.254,"lo1":-89.0895,"lo2":-89.0444,"dy":0.0017,"dx":0.0017,"nx":28,"ny":28,"refTime":"2024-07-21T03:00:00:Z","depth":0,"parameterNumber":2,"parameterNumberName":"U-component_of_WINDS"},"data":[0,0,0,0,0,0,0,0,0,0,0,0,0,0,0,0,0,0,0,0,0,0,0,0,0,0,0,0,0,0,0,0,0,0,0,0,0,0,0,0,0,0,0,0,0,0,0,0,0,0,0,0,0,0,0,0,0,0,2.8707,2.8708,0,2.872,2.8721,2.8721,2.8681,2.868,2.8679,2.8678,2.8691,2.8693,2.8694,0,0,0,0,0,0,0,0,0,0,0,0,0,2.8648,2.865,2.8707,2.8708,2.8708,2.872,2.8721,2.8721,2.8681,2.868,2.8678,2.8677,2.8691,2.8692,2.8694,0,0,0,0,0,0,0,0,0,0,0,0,0,2.8669,2.865,2.8707,2.869,2.8688,2.872,2.8721,2.8721,2.8682,2.868,2.8678,2.8676,2.869,2.8692,2.8694,2.8744,0,0,2.8701,2.8702,0,0,0,0,0,0,0,0,2.8668,2.8671,2.8692,2.8691,2.8689,2.8697,2.8705,2.8729,2.8682,2.8684,2.8678,2.8676,2.8695,2.8696,2.8703,2.8745,2.8746,2.8701,2.8703,2.8704,2.8704,0,0,0,0,0,0,0,2.8666,2.867,2.8713,2.8692,2.8691,2.8681,2.8682,2.8709,2.8699,2.8684,2.8681,2.8683,2.8694,2.8701,2.8703,2.8746,2.8701,2.8703,2.8705,2.8706,2.8829,2.8831,0,0,0,0,0,0,2.8667,2.8669,2.8712,2.8713,2.8674,2.8683,2.8685,2.8697,2.8699,2.8698,2.8685,2.8681,2.8698,2.87,2.8703,2.8761,2.8704,2.8706,2.8707,2.8827,2.8829,2.8831,0,0,0,0,0,0,2.8666,2.8672,2.8712,2.869,2.8695,2.8686,2.87,2.8698,2.8705,2.87,2.8698,2.8694,2.8696,2.87,2.8734,2.8761,2.8707,2.8709,2.8825,2.8828,2.883,2.8877,0,0,0,0,0,0,2.8665,2.8671,2.869,2.8691,2.8696,2.8743,2.8702,2.8699,2.8709,2.8705,2.8708,2.8706,2.8695,2.8731,2.8736,2.8763,2.8711,2.8822,2.8826,2.8829,2.8873,2.8882,2.8889,0,0,0,0,0,2.8663,2.8703,2.8692,2.8697,2.872,2.8744,2.8747,2.8733,2.8711,2.873,2.8727,2.8706,2.8757,2.8735,2.8741,2.8768,2.882,2.8825,2.8829,2.887,2.888,2.8888,0,0,0,0,0,0,2.8706,2.8703,2.869,2.8732,2.8739,2.8738,2.8761,2.8745,2.8758,2.8753,2.8736,2.8737,2.8774,2.8775,2.875,2.8816,2.8785,2.8791,2.8814,2.8824,2.8831,2.883,2.8712,0,0,0,0,0,2.8721,2.8741,2.8737,2.8775,2.8779,2.8769,2.878,2.8769,2.8775,2.8777,2.8776,2.8783,2.88,2.8812,2.8828,2.8874,2.8873,2.8896,2.8903,2.8909,2.8914,2.8937,2.8947,2.8846,2.8846,2.8845,0,0,2.8751,2.8751,2.8765,2.8783,2.8787,2.8808,2.8772,2.8796,2.8811,2.8781,2.8813,2.8813,2.8819,2.8859,2.8876,2.886,2.8942,2.8915,2.892,2.8921,2.8943,2.8952,2.8961,2.8849,2.8848,2.8848,0,0,2.8816,2.8819,2.885,2.8854,2.8861,2.8854,2.8862,2.8863,2.8861,2.8893,2.8871,2.8889,2.8919,2.8924,2.8931,2.8998,2.898,2.9004,2.9043,2.9066,2.9074,2.9081,2.9104,2.9112,2.9009,2.9009,2.9009,0,2.8852,2.8883,2.8868,2.8893,2.8902,2.8875,2.8906,2.8911,2.8923,2.8929,2.8911,2.8948,2.8951,2.8991,2.9007,2.9014,2.9022,2.9003,2.9074,2.9081,2.9087,2.9109,2.9117,2.9012,2.9012,2.9011,2.9011,0,2.8927,2.8949,2.8973,2.8984,2.8995,2.9023,2.9013,2.9026,2.9014,2.9009,2.9042,2.9044,2.9059,2.9068,2.9057,2.9107,2.9097,2.9077,2.9045,2.91,2.912,2.9128,2.9016,2.9015,2.9014,2.9014,0,0,2.9019,2.9021,2.903,2.9034,2.9039,2.9056,2.9083,2.9098,2.9109,2.9118,2.9139,2.9166,2.9147,2.9155,2.9144,2.9165,2.9216,2.9142,2.9142,2.9155,2.927,2.9283,2.9293,2.9204,2.9206,2.9207,2.9269,0,2.9082,2.9127,2.9115,2.916,2.918,2.9155,2.9178,2.9184,2.918,2.9196,2.9192,2.9211,2.9186,2.919,2.9209,2.9206,2.9239,2.9201,2.9224,2.9224,2.9221,2.9304,2.9319,2.9376,2.9277,2.9278,2.9279,0,2.9161,2.9173,2.922,2.9221,2.9229,2.925,2.9262,2.9278,2.9283,2.9279,2.9288,2.9273,2.9299,2.9268,2.9304,2.9278,2.9287,2.9287,2.9289,2.9289,2.9254,2.9305,2.9395,2.9403,2.9291,2.929,2.9289,0,2.9222,2.9249,2.9281,2.9286,2.9288,2.9303,2.9305,2.9309,2.9318,2.9329,2.9335,2.9349,2.9357,2.9368,2.9357,2.9335,2.9394,2.9362,2.939,2.9391,2.9402,2.9402,2.9493,2.9411,2.9411,2.941,2.941,0,2.9293,2.9323,2.9308,2.9327,2.936,2.9345,2.9377,2.9376,2.938,2.9398,2.9379,2.9396,2.9382,2.9398,2.939,2.942,2.9424,2.9421,2.9418,2.9422,2.9422,2.9426,2.9421,2.9413,2.9412,2.9412,2.9411,0,2.9366,2.9357,2.939,2.9389,2.939,2.9414,2.9413,2.9431,2.9426,2.9449,2.9454,2.9447,2.9465,2.9456,2.9475,2.9469,2.9507,2.95,2.9505,2.9503,2.9531,2.9528,2.9627,2.9639,2.9551,2.9551,2.9552,0,2.9411,2.9433,2.9434,2.9445,2.9448,2.9466,2.9475,2.9462,2.9473,2.9481,2.9497,2.9514,2.9526,2.9557,2.9553,2.9567,2.9559,2.9593,2.9561,2.9564,2.9558,2.9556,2.9557,2.9599,2.96,2.9601,2.9601,0,2.9491,2.9486,2.95,2.9513,2.9525,2.9534,2.9542,2.9552,2.9539,2.9552,2.957,2.958,2.9599,2.9616,2.9628,2.963,2.9613,2.9612,2.9619,2.9622,2.9623,2.9621,2.9521,2.9609,2.9608,2.9608,2.9607,2.9607,2.955,2.9568,2.9572,2.9588,2.9593,2.9601,2.9617,2.9614,2.9629,2.9643,2.9635,2.9656,2.9661,2.9676,2.968,2.9696,2.9682,2.9693,2.9695,2.9698,2.9701,2.9622,2.9698,2.9698,2.9698,2.9698,2.9698,0,2.9628,2.9629,2.9645,2.9656,2.9669,2.9653,2.9661,2.9672,2.9691,2.9697,2.9709,2.973,2.9746,2.9743,2.9758,2.9771,2.9764,2.9775,2.9773,2.9774,2.9713,2.9705,2.9781,2.9781,2.9781,2.9781,2.9781,2.9781,2.967,2.9699,2.9694,2.9725,2.9726,2.9747,2.9752,2.9759,2.9764,2.9788,2.98,2.9799,2.9801,2.9816,2.9829,2.9828,2.9834,2.9847,2.9843,2.9786,2.9778,2.977,2.9762,2.9849,2.9849,2.9902,2.9903,2.9903]},{"header":{"parameterUnit":"m.s-1","parameterCategory":1,"la1":30.2991,"la2":30.254,"lo1":-89.0895,"lo2":-89.0444,"dy":0.0017,"dx":0.0017,"nx":28,"ny":28,"refTime":"2024-07-21T03:00:00:Z","depth":0,"parameterNumber":3,"parameterNumberName":"V-component_of_WINDS"},"data":[0,0,0,0,0,0,0,0,0,0,0,0,0,0,0,0,0,0,0,0,0,0,0,0,0,0,0,0,0,0,0,0,0,0,0,0,0,0,0,0,0,0,0,0,0,0,0,0,0,0,0,0,0,0,0,0,0,0,1.9963,1.9964,0,2.0099,2.0101,2.0102,2.0121,2.012,2.0119,2.0118,2.0258,2.0262,2.0267,0,0,0,0,0,0,0,0,0,0,0,0,0,1.9718,1.9722,1.9963,1.9964,1.9966,2.0099,2.0101,2.0103,2.0121,2.012,2.0118,2.0117,2.0256,2.0262,2.0268,0,0,0,0,0,0,0,0,0,0,0,0,0,1.9836,1.9724,1.9962,1.9992,1.9995,2.0099,2.0101,2.0103,2.0122,2.012,2.0118,2.0116,2.0254,2.0261,2.0268,2.0352,0,0,2.0291,2.0294,0,0,0,0,0,0,0,0,1.983,1.9845,1.9986,1.999,1.9994,2.0091,2.0066,2.0187,2.0122,2.0074,2.0117,2.0115,2.0204,2.0215,2.0245,2.0359,2.0365,2.0292,2.0296,2.0299,2.0301,0,0,0,0,0,0,0,1.9821,1.984,2.0017,1.9988,1.9993,1.9998,2.0012,2.0089,2.0148,2.0078,2.008,2.0096,2.0206,2.0238,2.0248,2.0367,2.0291,2.0298,2.0303,2.0305,2.0556,2.0558,0,0,0,0,0,0,1.9808,1.9833,2.0012,2.0021,1.9906,2.0004,2.002,2.0062,2.0147,2.0158,2.0097,2.0096,2.0226,2.024,2.0253,2.0357,2.0299,2.0306,2.031,2.0553,2.0556,2.0559,0,0,0,0,0,0,1.9803,1.9824,2.0007,1.9927,1.9951,2.001,2.0057,2.0066,2.0098,2.0162,2.0172,2.0119,2.0225,2.0243,2.0327,2.0362,2.0309,2.0316,2.0551,2.0554,2.0557,2.0565,0,0,0,0,0,0,1.9796,1.9822,1.9854,1.9928,1.9955,2.0079,2.0059,2.007,2.0111,2.011,2.0185,2.0195,2.0225,2.0316,2.0335,2.0371,2.0322,2.0548,2.0552,2.0556,2.0562,2.0568,2.0573,0,0,0,0,0,1.9787,1.9851,1.9856,1.9878,1.9997,2.0081,2.0096,2.0129,2.0113,2.0146,2.0187,2.0193,2.0355,2.0325,2.0346,2.0385,2.0546,2.0551,2.0556,2.0559,2.0567,2.0573,0,0,0,0,0,0,1.9781,1.9861,1.9868,1.9958,2.0012,2.0084,2.0127,2.0136,2.0197,2.0194,2.0232,2.0249,2.0331,2.0366,2.0331,2.047,2.0449,2.0459,2.0444,2.0452,2.0458,2.0447,2.0328,0,0,0,0,0,1.979,1.9851,1.9918,1.9991,2.0018,2.0068,2.0105,2.0126,2.0184,2.0207,2.0254,2.031,2.0373,2.0415,2.0477,2.0566,2.0583,2.0604,2.0609,2.0614,2.0622,2.0671,2.0681,2.0575,2.0575,2.0575,0,0,1.9809,1.9861,1.9897,1.9991,2.0036,2.0098,2.0087,2.0154,2.02,2.0217,2.03,2.0336,2.0401,2.0488,2.0529,2.052,2.0654,2.062,2.0623,2.0629,2.0677,2.0687,2.0696,2.0578,2.0578,2.0577,0,0,1.9877,1.9922,1.9988,2.0033,2.01,2.0132,2.0148,2.0218,2.0243,2.0326,2.034,2.0396,2.0504,2.055,2.0587,2.0671,2.0678,2.069,2.072,2.0768,2.0777,2.0784,2.0814,2.0824,2.0697,2.0698,2.0698,0,1.9893,1.9987,2.002,2.0087,2.0127,2.0145,2.0211,2.0253,2.0338,2.0365,2.0354,2.049,2.0535,2.0633,2.0653,2.0683,2.0702,2.0682,2.0773,2.0781,2.0788,2.0817,2.0828,2.0698,2.0698,2.0698,2.0698,0,2.0003,2.0069,2.0113,2.0194,2.024,2.0306,2.0349,2.0391,2.0407,2.044,2.0524,2.0579,2.0652,2.0677,2.0693,2.0777,2.0769,2.0765,2.0745,2.0799,2.0826,2.0837,2.07,2.0699,2.0699,2.0699,0,0,2.0072,2.0169,2.0185,2.0221,2.0297,2.0348,2.0414,2.0485,2.0521,2.0578,2.0635,2.0726,2.0722,2.0764,2.0786,2.0828,2.089,2.0818,2.0821,2.083,2.0985,2.0988,2.1,2.0895,2.0897,2.0899,2.0979,0,2.0148,2.0267,2.0298,2.0399,2.046,2.0477,2.0535,2.0587,2.062,2.0676,2.0712,2.0775,2.0766,2.0791,2.0834,2.0873,2.0922,2.0868,2.0948,2.095,2.0931,2.1015,2.1018,2.1091,2.099,2.0992,2.0994,0,2.0253,2.0312,2.0419,2.0486,2.0512,2.0564,2.0631,2.0684,2.0744,2.0765,2.0811,2.0829,2.0898,2.0874,2.097,2.0933,2.0967,2.0991,2.0995,2.1004,2.0975,2.1026,2.1115,2.1126,2.1011,2.101,2.1008,0,2.0291,2.0398,2.0475,2.0506,2.0586,2.0622,2.0657,2.0714,2.0755,2.0814,2.084,2.0906,2.0942,2.0993,2.1028,2.1007,2.1121,2.1099,2.114,2.1139,2.1163,2.1161,2.126,2.1185,2.1185,2.1185,2.1184,0,2.0373,2.0438,2.0494,2.0542,2.0614,2.065,2.0721,2.0756,2.0807,2.0862,2.088,2.0931,2.0974,2.1031,2.1058,2.1133,2.1149,2.1168,2.1174,2.1166,2.1164,2.119,2.1185,2.1188,2.1187,2.1186,2.1186,0,2.0429,2.0469,2.0555,2.0623,2.0642,2.0693,2.0751,2.0798,2.0831,2.09,2.0918,2.097,2.1037,2.1077,2.1162,2.118,2.1263,2.1268,2.1243,2.1246,2.1284,2.128,2.1403,2.1421,2.1334,2.1335,2.1335,0,2.0479,2.0529,2.0603,2.0641,2.0676,2.0737,2.0778,2.0814,2.0857,2.0928,2.0966,2.1034,2.1091,2.1198,2.1243,2.1308,2.1314,2.1352,2.1324,2.1314,2.1314,2.1311,2.1316,2.1357,2.1358,2.1359,2.1359,0,2.0563,2.058,2.0639,2.0704,2.0753,2.0807,2.086,2.089,2.0935,2.0981,2.105,2.1094,2.1181,2.1249,2.1317,2.1353,2.1364,2.1368,2.1381,2.1373,2.1357,2.1366,2.1257,2.1365,2.1364,2.1364,2.1364,2.1363,2.0617,2.0662,2.0721,2.0786,2.0829,2.0878,2.0926,2.0964,2.1022,2.1096,2.1114,2.1186,2.1243,2.1337,2.1374,2.1431,2.1424,2.1443,2.1448,2.1452,2.1453,2.1347,2.1444,2.1443,2.1443,2.1443,2.1443,0,2.0702,2.074,2.0799,2.0873,2.0924,2.0929,2.0988,2.103,2.1094,2.1146,2.1202,2.1281,2.1346,2.1396,2.1463,2.1499,2.1505,2.1515,2.1513,2.1521,2.1455,2.1437,2.1509,2.1509,2.1509,2.1509,2.1509,2.1509,2.0752,2.0828,2.0852,2.095,2.0988,2.1059,2.1093,2.1138,2.118,2.1267,2.1322,2.1354,2.1405,2.1476,2.1536,2.1549,2.1573,2.1582,2.1595,2.1533,2.1526,2.1519,2.1502,2.1587,2.1587,2.1657,2.1657,2.1658]}]]